Location: *
(2.5500°S, 65.9667°W)
Time: 20:01:20
(UTC+00:00)

Cosmos 2173 Rocket - Pass Details

Date: 03 June 2022
Orbit: 945 x 1000 km, 83.0° (Epoch: 02 July)

Event Time Altitude Azimuth Distance (km) Brightness Sun altitude
Rises 22:47:49 0° 210° (SSW) 3,657 7.1 -6.9°
Reaches altitude 10° 22:50:57 10° 225° (SW) 2,697 6.6 -7.6°
Maximum altitude 22:55:25 21° 272° (W) 1,996 6.7 -8.7°
Drops below altitude 10° 22:59:51 10° 319° (NW) 2,666 7.4 -9.7°
Sets 23:02:57 0° 335° (NNW) 3,602 7.8 -10.4°
